SCP
1 1 0 0 0 0 0 0 0 0 0 0 0 0 1 1 0 0 0 0 0 0 0 0 0 0 0 0 0 0 0 0 0 0 0 0 1 1
1 1 0 0 0 0 0 0 0 0 0 0 0 0 0 0 0 0 0 0 0 0 0 0 0 0 0 0 0 0 0 0 0 0 0 0 0 0
0 0 0 0 0 0 0 0 0 0 0 0 0 0 0 0 0 0 0 0 0 0 0 0 0 0 0 0 0 0 0 0 0 0 0 0 0 0
0 0 0 0 0 0 0 0 0 0 0 0 0 0 0 0 0 0 0 0 0 0 0 0 0 0 0 0 0 0 0 0 0 0 0 0 0 0
0 0 0 0 0 0 0 0 0 0 0 0 0 0 0 0 0 0 0 0 0 0 0 0 0 0 0 0 0 0 0 0 0 0 0 0 0 0
1 1 1 0 0 0 0 0 0 0 0 0 0 0 0 0 0 0 0 0 0 0 0 0 0 0 0 0 0 0 0 0 0 0 0 0 0 0
1 1 1 0 0 0 0 0 0 0 0 0 0 0 0 0 0 0 0 0 0 0 0 0 0 0 0 0 0 0 0 0 0 0 0 0 0 0
1 1 1 0 0 0 0 0 0 0 0 0 0 0 0 0 0 0 0 0 0 0 0 0 0 0 0 0 0 0 0 0 0 0 0 0 0 0
1 1 0 0 0 0 0 0 0 0 0 0 0 0 0 0 0 0 0 0 0 0 0 0 0 0 0 0 0 0 0 0 0 0 0 0 0 0
0 0 0 0 0 0 0 0 0 0 0 0 0 0 0 0 0 0 0 0 0 0 0 0 0 0 0 0 0 0 0 0 0 0 0 0 0 0
0 0 0 0 0 0 0 0 0 0 0 0 0 0 0 0 0 0 0 0 0 0 0 0 0 0 0 0 0 0 0 0 0 0 0 0 0 0
0 0 0 0 0 0 0 0 0 0 0 0 0 0 0 0 0 0 0 0 0 0 0 0 0 0 0 0 0 0 0 0 0 0 0 0 0 0
0 0 0 0 0 0 0 0 0 0 0 0 0 0 0 0 0 0 0 0 0 0 0 0 0 0 0 0 0 0 0 0 0 0 0 0 0 0
0 0 0 0 0 0 0 0 0 0 0 0 0 0 0 0 0 0 0 0 0 0 0 0 0 0 0 0 0 0 0 0 0 0 0 0 0 0
0 0 0 0 0 0 0 0 0 0 0 0 0 0 0 0 0 0 0 0 0 0 0 0 0 0 0 0 0 0 0 0 0 0 0 0 0 0
0 0 0 0 0 0 0 0 0 0 0 0 0 0 0 0 0 0 0 0 0 0 0 0 0 0 0 0 0 0 0 0 0 0 0 0 0 0
0 0 0 0 0 0 0 0 0 0 0 0 0 0 0 0 0 0 0 0 0 0 0 0 0 0 0 0 0 0 0 0 0 0 0 0 0 0
0 0 0 0 0 0 0 0 0 0 0 0 0 0 0 0 0 0 0 0 0 0 0 0 0 0 0 0 0 0 0 0 0 0 0 0 0 0
0 0 0 0 0 0 0 0 0 0 0 0 0 0 0 0 0 0 0 0 0 0 0 0 0 0 0 0 0 0 0 0 0 0 0 0 0 0
0 0 0 0 0 0 0 0 0 0 0 0 0 0 0 0 0 0 0 0 0 0 0 0 0 0 0 0 0 0 0 0 0 0 0 0 0 0
0 0 0 0 0 0 0 0 0 0 0 0 0 0 0 0 0 0 0 0 0 0 0 0 0 0 0 0 0 0 0 0 0 0 0 0 0 0
0 0 0 0 0 0 0 0 0 0 0 0 0 0 0 0 0 0 0 0 0 0 0 0 0 0 0 0 0 0 0 0 0 0 0 0 0 0
0 0 0 0 0 0 0 0 0 0 0 0 0 0 0 0 0 0 0 0 0 0 0 0 0 0 0 0 0 0 0 0 0 0 0 0 0 0
Wind_Speed
5 5 5 4 4 4 4 3 4 6 6 4 3 3 3 2 4 3 3 7 8 7 7 7 7 8 8 8 7 7 7 7 8 9 10 11 11 12
4 5 5 4 4 4 4 4 4 5 7 4 3 3 3 3 5 3 4 7 8 8 8 8 8 8 8 7 7 6 7 7 8 9 10 10 11 11
5 5 6 5 4 4 3 4 4 4 7 6 3 3 3 3 4 3 3 3 4 8 9 9 9 8 7 6 6 6 6 6 7 8 9 9 11 11
5 5 6 5 5 4 4 5 5 5 5 7 4 3 4 4 4 4 3 3 3 7 9 8 8 7 6 5 5 5 5 6 7 8 8 9 10 11
5 5 5 5 6 5 5 6 5 5 4 5 5 3 3 3 3 3 3 2 3 4 6 6 6 6 6 5 5 5 5 5 6 7 8 8 9 10
5 5 6 6 6 6 6 6 5 5 4 4 4 3 3 2 2 2 3 2 2 3 4 4 5 6 6 6 5 5 5 5 5 6 7 7 8 9
5 6 7 7 8 7 6 5 5 5 4 4 3 3 3 2 3 2 3 2 3 2 2 2 2 2 3 5 5 5 4 5 5 6 6 7 8 8
6 6 6 7 8 9 10 9 7 7 6 5 4 5 5 4 3 3 2 2 3 2 2 3 2 2 2 2 5 5 5 5 5 6 6 7 7 7
6 6 6 5 6 5 7 8 8 9 9 7 7 6 6 5 5 5 4 4 4 2 2 3 2 3 2 3 6 6 5 5 5 6 6 7 7 7
6 6 6 5 5 6 5 5 5 5 6 5 6 6 5 5 6 6 4 2 2 1 1 3 2 3 3 3 5 6 6 6 5 6 7 7 7 7
5 5 6 5 6 6 5 5 5 4 5 5 6 6 6 5 4 2 2 2 3 2 1 2 2 2 3 3 4 5 6 6 6 6 7 7 7 6
4 4 6 6 6 5 4 4 5 4 3 3 3 4 3 2 2 2 3 3 2 2 2 1 1 1 2 2 2 2 3 5 6 6 6 7 7 3
4 3 3 6 6 5 5 4 5 4 2 2 2 2 1 1 1 1 1 2 2 3 2 1 1 1 2 3 2 2 2 2 3 3 5 6 6 4
4 3 3 5 5 5 4 4 4 3 1 1 1 2 1 1 1 1 1 1 1 2 2 2 2 2 2 3 3 2 2 2 2 2 2 5 5 6
3 4 5 6 5 4 4 4 2 1 1 1 2 2 2 1 1 0 1 1 1 1 2 2 3 3 3 3 3 2 2 2 1 2 2 2 2 2
4 4 5 5 4 4 4 2 1 1 1 1 2 2 1 1 1 1 1 1 1 1 1 2 2 3 2 3 3 3 2 1 1 2 2 2 2 1
3 2 2 2 2 2 2 1 1 1 1 1 1 1 1 1 1 1 1 1 1 1 1 1 1 0 1 2 2 2 1 1 1 1 2 2 2 1
3 2 2 2 2 2 2 2 2 2 1 1 1 1 1 1 1 1 1 1 1 1 1 1 1 1 1 1 1 1 1 1 1 1 1 1 2 2
2 2 2 2 2 2 2 2 2 2 2 1 1 1 1 1 1 1 1 1 1 1 1 1 1 0 0 1 2 1 1 1 1 1 1 1 1 2
2 2 2 2 2 2 2 2 2 2 2 1 1 1 1 1 1 1 1 1 1 0 0 0 1 1 1 1 1 2 2 1 0 0 1 1 1 2
2 2 2 2 2 2 2 2 2 2 2 2 1 2 1 1 1 1 1 0 0 1 1 1 1 1 1 1 1 1 2 2 1 0 0 1 1 2
2 2 2 1 1 2 2 2 2 2 2 2 2 1 1 1 1 1 1 1 1 1 0 0 1 1 1 1 1 1 1 2 2 3 2 1 1 1
2 2 2 2 2 2 2 2 2 2 2 2 2 1 1 1 1 1 1 1 1 1 1 1 1 1 1 1 1 1 1 2 2 2 2 3 3 2
Wind_Direction
242 242 244 245 239 242 243 232 242 268 266 245 248 243 248 256 252 245 238 249 256 259 264 265 268 272 277 284 284 287 292 296 294 292 292 288 283 279
245 244 245 248 242 238 242 241 237 250 266 259 256 264 250 267 266 264 248 255 254 258 261 263 263 266 270 273 279 282 286 291 294 293 291 294 290 281
255 251 251 252 250 244 240 241 245 248 264 279 280 278 259 257 265 263 252 236 243 253 259 260 262 261 259 262 272 280 287 293 296 297 295 294 293 286
258 256 256 253 248 248 243 240 243 245 253 273 284 280 269 250 251 257 263 263 255 256 259 260 259 255 257 261 270 282 288 294 298 298 300 300 296 288
258 255 256 253 251 249 251 250 247 250 250 259 271 276 276 256 258 268 268 273 273 269 263 262 262 265 264 267 272 278 282 287 293 299 301 306 305 296
260 257 255 250 251 249 252 251 251 250 252 254 265 272 274 259 242 258 279 276 279 275 269 272 269 268 265 268 273 282 285 288 293 298 304 307 308 305
265 262 260 258 260 259 259 254 251 250 253 249 258 271 272 250 235 240 265 279 287 258 274 278 272 266 259 261 269 279 284 285 291 297 301 305 308 305
270 268 269 265 268 273 274 272 263 253 249 248 251 249 251 251 240 235 241 263 268 235 251 272 256 265 263 255 264 276 285 288 290 295 299 302 304 304
272 272 275 275 275 262 269 275 272 272 264 253 248 250 247 241 233 234 232 247 258 240 245 261 238 255 261 260 264 267 275 287 289 295 298 301 301 301
273 272 269 264 263 269 266 266 266 268 266 264 254 253 252 243 232 231 231 253 304 269 222 255 258 268 273 257 255 263 278 286 286 288 294 298 298 298
276 277 277 264 268 278 273 270 277 281 289 293 296 294 285 269 257 214 200 224 277 265 227 234 263 295 279 261 255 264 280 284 284 282 289 297 298 298
288 289 293 285 277 273 259 258 267 279 289 297 302 312 311 303 302 251 210 214 246 254 223 204 238 309 292 268 262 266 270 276 281 289 293 295 297 288
295 295 296 300 296 289 281 263 274 292 285 282 291 304 324 332 306 303 284 236 232 249 220 192 224 227 238 281 285 268 262 273 277 282 287 293 296 291
294 297 302 316 312 305 292 295 307 313 299 297 296 295 296 292 289 292 319 332 278 260 237 219 229 228 237 265 273 276 265 262 277 286 290 289 283 283
300 313 319 320 317 308 308 310 305 284 262 269 272 282 287 278 281 299 14 16 350 303 257 243 232 230 237 247 260 264 281 276 265 275 287 283 274 275
300 309 318 327 324 328 332 326 309 270 255 258 275 285 304 304 283 282 277 282 323 327 310 271 243 221 240 254 249 258 266 252 270 292 298 297 284 255
309 314 324 327 330 333 332 324 322 317 303 297 279 281 292 287 289 287 270 270 271 279 312 341 345 256 233 239 237 243 256 271 273 293 308 314 305 273
324 319 321 321 317 317 320 326 329 319 305 295 287 286 280 275 293 301 263 248 262 278 287 299 334 352 8 343 297 225 249 276 306 310 310 313 318 332
328 313 308 309 307 312 316 321 322 318 308 302 299 292 286 279 272 275 268 266 269 274 274 272 273 208 341 321 323 310 236 264 314 333 317 293 296 312
306 296 299 303 306 309 313 317 318 317 312 303 301 292 280 269 267 263 263 246 237 239 250 248 225 229 222 214 279 311 308 256 197 307 329 336 328 319
309 297 293 298 304 308 312 314 309 307 303 296 297 293 283 272 267 266 249 219 230 221 233 258 274 329 342 79 62 3 347 338 321 237 319 355 342 353
310 306 304 302 300 299 303 306 310 311 309 302 294 285 281 265 249 238 228 206 223 239 275 18 78 77 92 111 99 50 15 15 11 12 7 326 223 263
315 313 313 310 301 296 297 301 305 306 305 302 300 296 285 274 253 227 217 196 179 152 119 107 90 87 100 119 119 101 58 33 33 31 17 12 9 343